SKU011 DNAA-DBBB

Flight info

Callsign SKU011
Flight time 1h 3m
Altitude 24000
Route IKSEM1Q IKSEM DCT VONUK H340 LAG L433 POLTO POLTO1M
Aircraft A320/M-SDE3FGHIRWY/LB1

Departure

Time 2026-04-23 21:38
Airport Nnamdi Azikiwe International Airport (DNAA)

Arrival

Time 2026-04-23 22:41
Airport Cotonou Cadjehoun International Airport (DBBB)
Time Latitude Longitude Altitude Speed Heading
2026-04-23 21:17 9.00695 7.26774 1112 ft 0 kts
2026-04-23 21:23 9.00683 7.26773 1105 ft 2 kts
2026-04-23 21:23 9.00667 7.26772 1105 ft 2 kts
2026-04-23 21:23 9.00650 7.26772 1107 ft 2 kts
2026-04-23 21:23 9.00634 7.26771 1111 ft 2 kts
2026-04-23 21:24 9.00617 7.26771 1107 ft 2 kts 357°
2026-04-23 21:24 9.00601 7.26772 1106 ft 2 kts 347°
2026-04-23 21:24 9.00594 7.26774 1105 ft 0 kts 346°
2026-04-23 21:27 9.00620 7.26756 1107 ft 10 kts 318°
2026-04-23 21:27 9.00677 7.26676 1111 ft 14 kts 304°
2026-04-23 21:28 9.00732 7.26603 1110 ft 12 kts 323°
2026-04-23 21:28 9.00804 7.26613 1114 ft 10 kts 28°
2026-04-23 21:28 9.00854 7.26648 1108 ft 8 kts 35°
2026-04-23 21:28 9.00876 7.26663 1115 ft 6 kts 35°
2026-04-23 21:29 9.00906 7.26684 1113 ft 4 kts 35°
2026-04-23 21:29 9.00948 7.26714 1113 ft 20 kts 35°
2026-04-23 21:29 9.01076 7.26804 1108 ft 19 kts 35°
2026-04-23 21:29 9.01178 7.26875 1115 ft 16 kts 34°
2026-04-23 21:30 9.01264 7.26936 1119 ft 14 kts 34°
2026-04-23 21:30 9.01360 7.27002 1120 ft 23 kts 35°
2026-04-23 21:30 9.01498 7.27104 1118 ft 23 kts 36°
2026-04-23 21:30 9.01631 7.27198 1120 ft 23 kts 35°
2026-04-23 21:31 9.01711 7.27255 1119 ft 10 kts 35°
2026-04-23 21:31 9.01763 7.27289 1130 ft 7 kts 23°
2026-04-23 21:31 9.01764 7.27289 1130 ft 0 kts 16°
2026-04-23 21:31 9.01765 7.27288 1129 ft 0 kts
2026-04-23 21:32 9.01762 7.27290 1130 ft 4 kts 32°
2026-04-23 21:32 9.01761 7.27289 1131 ft 1 kts 31°
2026-04-23 21:32 9.01762 7.27289 1130 ft 0 kts 30°
2026-04-23 21:33 9.01764 7.27288 1130 ft 2 kts
2026-04-23 21:33 9.01751 7.27286 1132 ft 6 kts 29°
2026-04-23 21:33 9.01710 7.27254 1119 ft 3 kts 29°
2026-04-23 21:33 9.01768 7.27247 1129 ft 17 kts
2026-04-23 21:34 9.01857 7.27250 1128 ft 9 kts
2026-04-23 21:34 9.01939 7.27253 1129 ft 22 kts
2026-04-23 21:34 9.01983 7.27239 1133 ft 3 kts 261°
2026-04-23 21:34 9.01952 7.27210 1131 ft 9 kts 210°
2026-04-23 21:35 9.01942 7.27205 1131 ft 0 kts 210°
2026-04-23 21:37 9.01940 7.27203 1126 ft 6 kts 210°
2026-04-23 21:37 9.01691 7.27032 1118 ft 80 kts 215°
2026-04-23 21:38 9.01058 7.26586 1113 ft 139 kts 214°
2026-04-23 21:38 9.00153 7.25928 1224 ft 173 kts 213°
2026-04-23 21:38 8.99198 7.25252 2031 ft 165 kts 212°
2026-04-23 21:38 8.98577 7.24812 2534 ft 164 kts 212°
2026-04-23 21:39 8.97727 7.24008 3153 ft 176 kts 227°
2026-04-23 21:39 8.96972 7.22936 3421 ft 199 kts 233°
2026-04-23 21:39 8.96170 7.21686 3683 ft 224 kts 233°
2026-04-23 21:39 8.95276 7.20286 4076 ft 249 kts 234°
2026-04-23 21:40 8.94312 7.18784 4623 ft 260 kts 234°
2026-04-23 21:40 8.93308 7.17232 5399 ft 266 kts 235°
2026-04-23 21:40 8.92279 7.15659 6206 ft 271 kts 237°
2026-04-23 21:40 8.91215 7.14052 6902 ft 279 kts 237°
2026-04-23 21:41 8.90109 7.12390 7557 ft 289 kts 238°
2026-04-23 21:41 8.88971 7.10686 8225 ft 297 kts 239°
2026-04-23 21:41 8.87800 7.08933 8926 ft 304 kts 239°
2026-04-23 21:41 8.86601 7.07141 9642 ft 311 kts 239°
2026-04-23 21:42 8.84942 7.04662 10135 ft 335 kts 239°
2026-04-23 21:42 8.84056 7.03339 10318 ft 349 kts 238°
2026-04-23 21:42 8.82674 7.01282 10859 ft 357 kts 238°
2026-04-23 21:42 8.81264 6.99192 11529 ft 362 kts 238°
2026-04-23 21:43 8.79836 6.97080 12222 ft 366 kts 238°
2026-04-23 21:43 8.78399 6.94949 12922 ft 369 kts 238°
2026-04-23 21:43 8.76947 6.92789 13608 ft 373 kts 238°
2026-04-23 21:43 8.75483 6.90608 14227 ft 376 kts 238°
2026-04-23 21:44 8.74009 6.88413 14859 ft 378 kts 238°
2026-04-23 21:44 8.72527 6.86204 15473 ft 381 kts 238°
2026-04-23 21:44 8.71037 6.83981 16098 ft 383 kts 238°
2026-04-23 21:44 8.69536 6.81745 16708 ft 386 kts 238°
2026-04-23 21:45 8.68023 6.79498 17330 ft 388 kts 238°
2026-04-23 21:45 8.66500 6.77239 17947 ft 390 kts 238°
2026-04-23 21:45 8.64987 6.74999 18461 ft 392 kts 238°
2026-04-23 21:45 8.63448 6.72715 18981 ft 394 kts 238°
2026-04-23 21:46 8.61905 6.70415 19491 ft 396 kts 237°
2026-04-23 21:46 8.60356 6.68104 20007 ft 398 kts 237°
2026-04-23 21:46 8.58799 6.65784 20527 ft 400 kts 237°
2026-04-23 21:46 8.57234 6.63458 21028 ft 401 kts 237°
2026-04-23 21:47 8.55644 6.61136 21533 ft 403 kts 233°
2026-04-23 21:47 8.53756 6.59039 22012 ft 405 kts 222°
2026-04-23 21:47 8.51638 6.57155 22495 ft 406 kts 221°
2026-04-23 21:47 8.49512 6.55265 23004 ft 408 kts 221°
2026-04-23 21:48 8.47379 6.53366 23457 ft 409 kts 221°
2026-04-23 21:48 8.45235 6.51456 23715 ft 412 kts 221°
2026-04-23 21:48 8.43086 6.49541 23790 ft 408 kts 221°
2026-04-23 21:48 8.41001 6.47681 23812 ft 394 kts 222°
2026-04-23 21:49 8.39128 6.45688 23815 ft 390 kts 232°
2026-04-23 21:49 8.37672 6.43384 23818 ft 389 kts 242°
2026-04-23 21:49 8.36401 6.40971 23812 ft 389 kts 242°
2026-04-23 21:49 8.35124 6.38560 23815 ft 389 kts 242°
2026-04-23 21:50 8.33844 6.36153 23822 ft 389 kts 242°
2026-04-23 21:50 8.32562 6.33748 23819 ft 389 kts 242°
2026-04-23 21:50 8.31299 6.31375 23822 ft 389 kts 242°
2026-04-23 21:50 8.30003 6.28938 23822 ft 389 kts 242°
2026-04-23 21:51 8.28741 6.26564 23826 ft 389 kts 242°
2026-04-23 21:51 8.27464 6.24165 23824 ft 389 kts 242°
2026-04-23 21:51 8.26182 6.21762 23827 ft 389 kts 242°
2026-04-23 21:51 8.24900 6.19358 23826 ft 389 kts 242°
2026-04-23 21:52 8.23619 6.16954 23827 ft 389 kts 242°
2026-04-23 21:52 8.22340 6.14548 23829 ft 389 kts 242°
2026-04-23 21:52 8.21062 6.12142 23833 ft 389 kts 242°
2026-04-23 21:52 8.19785 6.09734 23832 ft 389 kts 242°
2026-04-23 21:53 8.18505 6.07322 23834 ft 389 kts 242°
2026-04-23 21:53 8.17227 6.04922 23835 ft 389 kts 242°
2026-04-23 21:53 8.15942 6.02519 23839 ft 389 kts 241°
2026-04-23 21:53 8.14657 6.00116 23844 ft 389 kts 242°
2026-04-23 21:54 8.13373 5.97712 23844 ft 389 kts 241°
2026-04-23 21:54 8.12088 5.95309 23848 ft 389 kts 241°
2026-04-23 21:54 8.10805 5.92906 23850 ft 389 kts 242°
2026-04-23 21:54 8.09541 5.90534 23854 ft 389 kts 241°
2026-04-23 21:55 8.08259 5.88131 23853 ft 389 kts 242°
2026-04-23 21:55 8.06976 5.85722 23858 ft 389 kts 242°
2026-04-23 21:55 8.05698 5.83319 23863 ft 389 kts 242°
2026-04-23 21:55 8.04417 5.80918 23862 ft 389 kts 242°
2026-04-23 21:56 8.03134 5.78517 23868 ft 389 kts 242°
2026-04-23 21:56 8.01849 5.76113 23869 ft 388 kts 242°
2026-04-23 21:56 8.00568 5.73713 23871 ft 388 kts 242°
2026-04-23 21:56 7.99287 5.71313 23875 ft 388 kts 242°
2026-04-23 21:57 7.98008 5.68912 23878 ft 388 kts 242°
2026-04-23 21:57 7.96727 5.66514 23876 ft 388 kts 242°
2026-04-23 21:57 7.95445 5.64116 23881 ft 388 kts 242°
2026-04-23 21:57 7.94163 5.61720 23883 ft 388 kts 242°
2026-04-23 21:58 7.92897 5.59356 23888 ft 388 kts 242°
2026-04-23 21:58 7.91623 5.56979 23886 ft 388 kts 242°
2026-04-23 21:58 7.90343 5.54582 23891 ft 388 kts 242°
2026-04-23 21:58 7.89061 5.52179 23892 ft 388 kts 242°
2026-04-23 21:59 7.87779 5.49783 23899 ft 388 kts 242°
2026-04-23 21:59 7.86496 5.47389 23898 ft 388 kts 242°
2026-04-23 21:59 7.85215 5.44995 23899 ft 388 kts 242°
2026-04-23 22:00 7.82647 5.40207 23905 ft 388 kts 242°
2026-04-23 22:00 7.81362 5.37817 23905 ft 388 kts 242°
2026-04-23 22:00 7.80075 5.35421 23911 ft 388 kts 242°
2026-04-23 22:00 7.78793 5.33025 23911 ft 388 kts 242°
2026-04-23 22:01 7.77511 5.30625 23912 ft 388 kts 242°
2026-04-23 22:01 7.76231 5.28230 23917 ft 388 kts 242°
2026-04-23 22:01 7.74964 5.25867 23913 ft 388 kts 242°
2026-04-23 22:01 7.73678 5.23471 23919 ft 388 kts 242°
2026-04-23 22:02 7.72392 5.21072 23916 ft 388 kts 242°
2026-04-23 22:02 7.71108 5.18675 23918 ft 389 kts 242°
2026-04-23 22:02 7.69823 5.16278 23922 ft 389 kts 242°
2026-04-23 22:02 7.68539 5.13883 23921 ft 389 kts 242°
2026-04-23 22:03 7.67250 5.11483 23930 ft 389 kts 242°
2026-04-23 22:03 7.65965 5.09085 23928 ft 389 kts 242°
2026-04-23 22:03 7.64678 5.06686 23931 ft 389 kts 242°
2026-04-23 22:03 7.63391 5.04288 23932 ft 389 kts 242°
2026-04-23 22:04 7.62103 5.01890 23925 ft 389 kts 242°
2026-04-23 22:04 7.60814 4.99492 23930 ft 389 kts 242°
2026-04-23 22:04 7.59524 4.97091 23934 ft 389 kts 242°
2026-04-23 22:04 7.58249 4.94723 23931 ft 389 kts 242°
2026-04-23 22:05 7.56960 4.92329 23932 ft 389 kts 242°
2026-04-23 22:05 7.55671 4.89931 23933 ft 389 kts 242°
2026-04-23 22:05 7.54384 4.87532 23933 ft 389 kts 242°
2026-04-23 22:05 7.53099 4.85133 23933 ft 389 kts 242°
2026-04-23 22:06 7.51816 4.82732 23930 ft 389 kts 242°
2026-04-23 22:06 7.50531 4.80331 23931 ft 389 kts 242°
2026-04-23 22:06 7.49242 4.77934 23934 ft 389 kts 242°
2026-04-23 22:06 7.47951 4.75542 23932 ft 389 kts 242°
2026-04-23 22:07 7.46659 4.73147 23931 ft 389 kts 242°
2026-04-23 22:07 7.45367 4.70752 23930 ft 389 kts 242°
2026-04-23 22:07 7.44091 4.68387 23929 ft 389 kts 242°
2026-04-23 22:07 7.42799 4.65993 23928 ft 389 kts 242°
2026-04-23 22:08 7.41508 4.63598 23933 ft 389 kts 242°
2026-04-23 22:08 7.40219 4.61203 23933 ft 389 kts 242°
2026-04-23 22:08 7.38932 4.58808 23927 ft 389 kts 242°
2026-04-23 22:08 7.37644 4.56412 23931 ft 389 kts 242°
2026-04-23 22:09 7.36356 4.54017 23927 ft 389 kts 242°
2026-04-23 22:09 7.35066 4.51624 23926 ft 389 kts 242°
2026-04-23 22:09 7.33776 4.49231 23928 ft 389 kts 242°
2026-04-23 22:09 7.32489 4.46837 23929 ft 389 kts 242°
2026-04-23 22:10 7.31199 4.44444 23927 ft 389 kts 242°
2026-04-23 22:10 7.29909 4.42051 23926 ft 389 kts 242°
2026-04-23 22:10 7.28619 4.39658 23926 ft 389 kts 242°
2026-04-23 22:10 7.27347 4.37298 23924 ft 389 kts 242°
2026-04-23 22:11 7.26056 4.34908 23928 ft 388 kts 242°
2026-04-23 22:11 7.24763 4.32518 23925 ft 388 kts 242°
2026-04-23 22:11 7.23474 4.30134 23928 ft 388 kts 242°
2026-04-23 22:11 7.22181 4.27740 23930 ft 388 kts 242°
2026-04-23 22:12 7.20892 4.25350 23924 ft 388 kts 242°
2026-04-23 22:12 7.19604 4.22962 23926 ft 388 kts 242°
2026-04-23 22:12 7.18317 4.20573 23923 ft 388 kts 242°
2026-04-23 22:12 7.17032 4.18184 23925 ft 388 kts 242°
2026-04-23 22:13 7.15745 4.15798 23906 ft 387 kts 242°
2026-04-23 22:13 7.14473 4.13443 23691 ft 378 kts 242°
2026-04-23 22:13 7.13228 4.11141 23474 ft 371 kts 241°
2026-04-23 22:13 7.12000 4.08874 23213 ft 368 kts 241°
2026-04-23 22:14 7.10777 4.06615 22948 ft 367 kts 242°
2026-04-23 22:14 7.09558 4.04362 22698 ft 366 kts 242°
2026-04-23 22:14 7.08345 4.02115 22450 ft 365 kts 242°
2026-04-23 22:14 7.07134 3.99872 22192 ft 364 kts 242°
2026-04-23 22:15 7.05942 3.97663 21944 ft 363 kts 242°
2026-04-23 22:15 7.04734 3.95431 21697 ft 363 kts 242°
2026-04-23 22:15 7.03528 3.93205 21450 ft 362 kts 242°
2026-04-23 22:15 7.02326 3.90987 21202 ft 360 kts 242°
2026-04-23 22:16 7.01129 3.88776 20967 ft 359 kts 242°
2026-04-23 22:16 6.99938 3.86569 20726 ft 358 kts 242°
2026-04-23 22:16 6.98748 3.84370 20490 ft 357 kts 242°
2026-04-23 22:16 6.97560 3.82176 20253 ft 357 kts 242°
2026-04-23 22:17 6.96373 3.79987 20023 ft 356 kts 242°
2026-04-23 22:17 6.95188 3.77804 19787 ft 355 kts 242°
2026-04-23 22:17 6.94006 3.75625 19550 ft 354 kts 242°
2026-04-23 22:17 6.92827 3.73447 19328 ft 354 kts 242°
2026-04-23 22:18 6.91653 3.71275 19100 ft 353 kts 242°
2026-04-23 22:18 6.90483 3.69110 18876 ft 352 kts 242°
2026-04-23 22:18 6.89330 3.66976 18655 ft 351 kts 242°
2026-04-23 22:18 6.88163 3.64819 18436 ft 351 kts 242°
2026-04-23 22:19 6.86994 3.62666 18209 ft 350 kts 242°
2026-04-23 22:19 6.85826 3.60519 17953 ft 349 kts 242°
2026-04-23 22:19 6.84661 3.58376 17705 ft 349 kts 242°
2026-04-23 22:19 6.83502 3.56236 17457 ft 348 kts 242°
2026-04-23 22:20 6.82348 3.54100 17202 ft 347 kts 242°
2026-04-23 22:20 6.81196 3.51969 16949 ft 346 kts 242°
2026-04-23 22:20 6.80047 3.49850 16707 ft 345 kts 242°
2026-04-23 22:20 6.78896 3.47732 16465 ft 345 kts 242°
2026-04-23 22:21 6.77749 3.45617 16219 ft 344 kts 242°
2026-04-23 22:21 6.76603 3.43508 15981 ft 343 kts 242°
2026-04-23 22:21 6.75458 3.41398 15744 ft 343 kts 242°
2026-04-23 22:21 6.74316 3.39296 15498 ft 342 kts 241°
2026-04-23 22:22 6.73179 3.37204 15273 ft 341 kts 241°
2026-04-23 22:22 6.72055 3.35135 15054 ft 340 kts 241°
2026-04-23 22:22 6.70929 3.33044 14815 ft 339 kts 244°
2026-04-23 22:22 6.70035 3.30823 14577 ft 339 kts 250°
2026-04-23 22:23 6.69223 3.28636 14357 ft 338 kts 250°
2026-04-23 22:23 6.68399 3.26420 14129 ft 337 kts 250°
2026-04-23 22:23 6.67576 3.24209 13902 ft 337 kts 250°
2026-04-23 22:23 6.66753 3.22004 13667 ft 336 kts 250°
2026-04-23 22:24 6.65930 3.19801 13417 ft 335 kts 250°
2026-04-23 22:24 6.65111 3.17612 13161 ft 334 kts 250°
2026-04-23 22:24 6.64295 3.15431 12907 ft 331 kts 250°
2026-04-23 22:24 6.63490 3.13282 12659 ft 327 kts 250°
2026-04-23 22:25 6.62695 3.11157 12408 ft 322 kts 250°
2026-04-23 22:25 6.61909 3.09053 12165 ft 319 kts 250°
2026-04-23 22:25 6.61142 3.07000 11921 ft 317 kts 250°
2026-04-23 22:25 6.60368 3.04930 11682 ft 316 kts 250°
2026-04-23 22:26 6.59595 3.02866 11437 ft 315 kts 250°
2026-04-23 22:26 6.58816 3.00779 11192 ft 314 kts 250°
2026-04-23 22:26 6.58063 2.98756 10959 ft 313 kts 250°
2026-04-23 22:26 6.57298 2.96709 10718 ft 312 kts 250°
2026-04-23 22:27 6.56533 2.94662 10486 ft 312 kts 250°
2026-04-23 22:27 6.55770 2.92626 10237 ft 311 kts 250°
2026-04-23 22:27 6.55009 2.90594 9953 ft 309 kts 250°
2026-04-23 22:27 6.54251 2.88578 9898 ft 308 kts 250°
2026-04-23 22:28 6.53495 2.86562 9909 ft 309 kts 250°
2026-04-23 22:28 6.52739 2.84538 9903 ft 309 kts 250°
2026-04-23 22:28 6.51985 2.82514 9907 ft 309 kts 250°
2026-04-23 22:28 6.51225 2.80484 9860 ft 311 kts 250°
2026-04-23 22:29 6.50453 2.78429 9282 ft 318 kts 250°
2026-04-23 22:29 6.49687 2.76388 9058 ft 304 kts 250°
2026-04-23 22:29 6.49121 2.74359 8644 ft 300 kts 264°
2026-04-23 22:29 6.48936 2.72290 8208 ft 295 kts 267°
2026-04-23 22:30 6.48769 2.70248 7824 ft 290 kts 266°
2026-04-23 22:30 6.48600 2.68245 7441 ft 285 kts 266°
2026-04-23 22:30 6.48436 2.66306 7068 ft 278 kts 266°
2026-04-23 22:30 6.48273 2.64404 6699 ft 268 kts 266°
2026-04-23 22:31 6.48119 2.62568 6329 ft 259 kts 266°
2026-04-23 22:31 6.47969 2.60789 5947 ft 252 kts 266°
2026-04-23 22:31 6.47824 2.59055 5559 ft 246 kts 265°
2026-04-23 22:31 6.47682 2.57358 5174 ft 241 kts 265°
2026-04-23 22:32 6.47540 2.55695 4794 ft 236 kts 265°
2026-04-23 22:32 6.47445 2.54588 4534 ft 233 kts 265°
2026-04-23 22:32 6.47618 2.52487 4015 ft 228 kts 292°
2026-04-23 22:32 6.48562 2.51226 3632 ft 228 kts 321°
2026-04-23 22:33 6.49995 2.50594 3250 ft 228 kts 350°
2026-04-23 22:33 6.51552 2.50746 2901 ft 227 kts 20°
2026-04-23 22:33 6.52834 2.51630 2532 ft 225 kts 51°
2026-04-23 22:33 6.53521 2.53008 2173 ft 219 kts 82°
2026-04-23 22:34 6.53680 2.54474 1992 ft 206 kts 95°
2026-04-23 22:34 6.53367 2.55834 1999 ft 196 kts 121°
2026-04-23 22:34 6.52564 2.56894 2032 ft 189 kts 144°
2026-04-23 22:34 6.51430 2.57488 2005 ft 182 kts 173°
2026-04-23 22:35 6.50236 2.57351 1999 ft 165 kts 207°
2026-04-23 22:35 6.49422 2.56669 2006 ft 146 kts 232°
2026-04-23 22:35 6.48835 2.55886 2013 ft 138 kts 232°
2026-04-23 22:35 6.48257 2.55116 2012 ft 137 kts 232°
2026-04-23 22:36 6.47686 2.54358 2008 ft 135 kts 232°
2026-04-23 22:36 6.47120 2.53605 2009 ft 135 kts 232°
2026-04-23 22:36 6.46553 2.52850 2011 ft 136 kts 232°
2026-04-23 22:36 6.45984 2.52094 2009 ft 136 kts 232°
2026-04-23 22:37 6.45421 2.51345 2004 ft 136 kts 232°
2026-04-23 22:37 6.44851 2.50587 2003 ft 136 kts 232°
2026-04-23 22:37 6.44278 2.49825 2006 ft 138 kts 232°
2026-04-23 22:37 6.43701 2.49057 2008 ft 138 kts 232°
2026-04-23 22:38 6.43128 2.48296 1997 ft 136 kts 232°
2026-04-23 22:38 6.42553 2.47530 1903 ft 137 kts 232°
2026-04-23 22:38 6.41977 2.46764 1766 ft 137 kts 232°
2026-04-23 22:38 6.41408 2.46008 1617 ft 135 kts 232°
2026-04-23 22:39 6.41030 2.45506 1491 ft 136 kts 231°
2026-04-23 22:39 6.40460 2.44748 1324 ft 136 kts 232°
2026-04-23 22:39 6.39897 2.43998 1149 ft 134 kts 232°
2026-04-23 22:39 6.39151 2.43007 930 ft 133 kts 231°
2026-04-23 22:40 6.38774 2.42506 810 ft 132 kts 231°
2026-04-23 22:40 6.38042 2.41532 610 ft 134 kts 232°
2026-04-23 22:40 6.37104 2.40286 304 ft 133 kts 234°
2026-04-23 22:41 6.36550 2.39555 149 ft 132 kts 232°
2026-04-23 22:41 6.36001 2.38810 37 ft 126 kts 232°
2026-04-23 22:41 6.35573 2.38253 25 ft 64 kts 232°
2026-04-23 22:41 6.35484 2.38140 24 ft 1 kts 231°
2026-04-23 22:42 6.35476 2.38130 24 ft 2 kts 232°
2026-04-23 22:42 6.35454 2.38100 24 ft 10 kts 233°
2026-04-23 22:42 6.35386 2.38079 25 ft 12 kts 151°
2026-04-23 22:42 6.35353 2.38102 25 ft 0 kts 144°
2026-04-23 22:44 6.35351 2.38104 25 ft 3 kts 144°
2026-04-23 22:44 6.35308 2.38135 24 ft 13 kts 144°
2026-04-23 22:44 6.35256 2.38193 24 ft 12 kts 92°
2026-04-23 22:44 6.35305 2.38250 24 ft 10 kts 36°
2026-04-23 22:45 6.35359 2.38291 24 ft 9 kts 49°
2026-04-23 22:45 6.35397 2.38339 24 ft 8 kts 66°
2026-04-23 22:45 6.35374 2.38372 24 ft 5 kts 143°
2026-04-23 22:45 6.35369 2.38378 24 ft 0 kts 138°